Year,Month,Day,Hour,Minute,Value (Times are PST for temperature in C)
2019,07,27,00,00,21.30
2019,07,27,00,01,21.30
2019,07,27,00,02,21.30
2019,07,27,00,03,21.30
2019,07,27,00,04,21.30
2019,07,27,00,05,21.30
2019,07,27,00,06,21.30
2019,07,27,00,07,21.30
2019,07,27,00,08,21.30
2019,07,27,00,09,21.30
2019,07,27,00,10,21.30
2019,07,27,00,11,21.30
2019,07,27,00,12,21.30
2019,07,27,00,13,21.30
2019,07,27,00,14,21.30
2019,07,27,00,15,21.30
2019,07,27,00,16,21.30
2019,07,27,00,17,21.30
2019,07,27,00,18,21.30
2019,07,27,00,19,21.30
2019,07,27,00,20,21.30
2019,07,27,00,21,21.30
2019,07,27,00,22,21.30
2019,07,27,00,23,21.30
2019,07,27,00,24,21.30
2019,07,27,00,25,21.30
2019,07,27,00,26,21.30
2019,07,27,00,27,21.30
2019,07,27,00,28,21.30
2019,07,27,00,29,21.30
2019,07,27,00,30,21.30
2019,07,27,00,31,21.30
2019,07,27,00,32,21.30
2019,07,27,00,33,21.30
2019,07,27,00,34,21.30
2019,07,27,00,35,21.30
2019,07,27,00,36,21.30
2019,07,27,00,37,21.30
2019,07,27,00,38,21.30
2019,07,27,00,39,21.30
2019,07,27,00,40,21.30
2019,07,27,00,41,21.30
2019,07,27,00,42,21.30
2019,07,27,00,43,21.30
2019,07,27,00,44,21.30
2019,07,27,00,45,21.30
2019,07,27,00,46,21.30
2019,07,27,00,47,21.30
2019,07,27,00,48,21.30
2019,07,27,00,49,21.30
2019,07,27,00,50,21.30
2019,07,27,00,51,21.30
2019,07,27,00,52,21.30
2019,07,27,00,53,21.30
2019,07,27,00,54,21.30
2019,07,27,00,55,21.30
2019,07,27,00,56,21.20
2019,07,27,00,57,21.20
2019,07,27,00,58,21.20
2019,07,27,00,59,21.20
2019,07,27,01,00,21.20
2019,07,27,01,01,21.20
2019,07,27,01,02,21.20
2019,07,27,01,03,21.20
2019,07,27,01,04,21.20
2019,07,27,01,05,21.20
2019,07,27,01,06,21.20
2019,07,27,01,07,21.20
2019,07,27,01,08,21.20
2019,07,27,01,09,21.20
2019,07,27,01,10,21.20
2019,07,27,01,11,21.20
2019,07,27,01,12,21.20
2019,07,27,01,13,21.10
2019,07,27,01,14,21.10
2019,07,27,01,15,21.10
2019,07,27,01,16,21.10
2019,07,27,01,17,21.10
2019,07,27,01,18,21.10
2019,07,27,01,19,21.10
2019,07,27,01,20,21.10
2019,07,27,01,21,21.10
2019,07,27,01,22,21.10
2019,07,27,01,23,21.10
2019,07,27,01,24,21.10
2019,07,27,01,25,21.10
2019,07,27,01,26,21.10
2019,07,27,01,27,21.10
2019,07,27,01,28,21.10
2019,07,27,01,29,21.10
2019,07,27,01,30,21.10
2019,07,27,01,31,21.10
2019,07,27,01,32,21.10
2019,07,27,01,33,21.10
2019,07,27,01,34,21.10
2019,07,27,01,35,21.10
2019,07,27,01,36,21.10
2019,07,27,01,37,21.10
2019,07,27,01,38,21.10
2019,07,27,01,39,21.00
2019,07,27,01,40,21.00
2019,07,27,01,41,21.00
2019,07,27,01,42,21.00
2019,07,27,01,43,21.00
2019,07,27,01,44,21.00
2019,07,27,01,45,21.00
2019,07,27,01,46,21.00
2019,07,27,01,47,21.00
2019,07,27,01,48,21.00
2019,07,27,01,49,21.00
2019,07,27,01,50,21.00
2019,07,27,01,51,21.00
2019,07,27,01,52,21.00
2019,07,27,01,53,21.00
2019,07,27,01,54,21.00
2019,07,27,01,55,21.00
2019,07,27,01,56,21.00
2019,07,27,01,57,21.00
2019,07,27,01,58,20.90
2019,07,27,01,59,20.90
2019,07,27,02,00,20.90
2019,07,27,02,01,20.90
2019,07,27,02,02,20.90
2019,07,27,02,03,20.90
2019,07,27,02,04,20.90
2019,07,27,02,05,20.90
2019,07,27,02,06,20.80
2019,07,27,02,07,20.80
2019,07,27,02,08,20.80
2019,07,27,02,09,20.80
2019,07,27,02,10,20.80
2019,07,27,02,11,20.70
2019,07,27,02,12,20.70
2019,07,27,02,13,20.70
2019,07,27,02,14,20.70
2019,07,27,02,15,20.70
2019,07,27,02,16,20.70
2019,07,27,02,17,20.60
2019,07,27,02,18,20.60
2019,07,27,02,19,20.60
2019,07,27,02,20,20.60
2019,07,27,02,21,20.60
2019,07,27,02,22,20.50
2019,07,27,02,23,20.50
2019,07,27,02,24,20.50
2019,07,27,02,25,20.50
2019,07,27,02,26,20.50
2019,07,27,02,27,20.50
2019,07,27,02,28,20.50
2019,07,27,02,29,20.50
2019,07,27,02,30,20.40
2019,07,27,02,31,20.40
2019,07,27,02,32,20.40
2019,07,27,02,33,20.40
2019,07,27,02,34,20.40
2019,07,27,02,35,20.40
2019,07,27,02,36,20.30
2019,07,27,02,37,20.30
2019,07,27,02,38,20.30
2019,07,27,02,39,20.30
2019,07,27,02,40,20.30
2019,07,27,02,41,20.20
2019,07,27,02,42,20.20
2019,07,27,02,43,20.20
2019,07,27,02,44,20.20
2019,07,27,02,45,20.20
2019,07,27,02,46,20.20
2019,07,27,02,47,20.20
2019,07,27,02,48,20.20
2019,07,27,02,49,20.20
2019,07,27,02,50,20.20
2019,07,27,02,51,20.20
2019,07,27,02,52,20.20
2019,07,27,02,53,20.20
2019,07,27,02,54,20.20
2019,07,27,02,55,20.10
2019,07,27,02,56,20.10
2019,07,27,02,57,20.10
2019,07,27,02,58,20.10
2019,07,27,02,59,20.10
2019,07,27,03,00,20.10
2019,07,27,03,01,20.00
2019,07,27,03,02,19.90
2019,07,27,03,03,19.90
2019,07,27,03,04,19.90
2019,07,27,03,05,19.90
2019,07,27,03,06,19.90
2019,07,27,03,07,19.90
2019,07,27,03,08,19.90
2019,07,27,03,09,19.90
2019,07,27,03,10,19.90
2019,07,27,03,11,19.80
2019,07,27,03,12,19.80
2019,07,27,03,13,19.80
2019,07,27,03,14,19.80
2019,07,27,03,15,19.70
2019,07,27,03,16,19.70
2019,07,27,03,17,19.70
2019,07,27,03,18,19.60
2019,07,27,03,19,19.60
2019,07,27,03,20,19.60
2019,07,27,03,21,19.60
2019,07,27,03,22,19.50
2019,07,27,03,23,19.50
2019,07,27,03,24,19.50
2019,07,27,03,25,19.40
2019,07,27,03,26,19.40
2019,07,27,03,27,19.40
2019,07,27,03,28,19.30
2019,07,27,03,29,19.30
2019,07,27,03,30,19.30
2019,07,27,03,31,19.20
2019,07,27,03,32,19.20
2019,07,27,03,33,19.10
2019,07,27,03,34,19.10
2019,07,27,03,35,19.10
2019,07,27,03,36,19.10
2019,07,27,03,37,19.10
2019,07,27,03,38,19.10
2019,07,27,03,39,19.00
2019,07,27,03,40,18.90
2019,07,27,03,41,18.90
2019,07,27,03,42,18.90
2019,07,27,03,43,18.90
2019,07,27,03,44,18.90
2019,07,27,03,45,18.80
2019,07,27,03,46,18.80
2019,07,27,03,47,18.80
2019,07,27,03,48,18.80
2019,07,27,03,49,18.70
2019,07,27,03,50,18.70
2019,07,27,03,51,18.70
2019,07,27,03,52,18.70
2019,07,27,03,53,18.60
2019,07,27,03,54,18.60
2019,07,27,03,55,18.60
2019,07,27,03,56,18.50
2019,07,27,03,57,18.50
2019,07,27,03,58,18.50
2019,07,27,03,59,18.50
2019,07,27,04,00,18.40
2019,07,27,04,01,18.40
2019,07,27,04,02,18.40
2019,07,27,04,03,18.40
2019,07,27,04,04,18.30
2019,07,27,04,05,18.30
2019,07,27,04,06,18.30
2019,07,27,04,07,18.20
2019,07,27,04,08,18.20
2019,07,27,04,09,18.20
2019,07,27,04,10,18.20
2019,07,27,04,11,18.20
2019,07,27,04,12,18.10
2019,07,27,04,13,18.10
2019,07,27,04,14,18.10
2019,07,27,04,15,18.00
2019,07,27,04,16,17.90
2019,07,27,04,17,17.90
2019,07,27,04,18,17.90
2019,07,27,04,19,17.90
2019,07,27,04,20,17.90
2019,07,27,04,21,17.90
2019,07,27,04,22,17.80
2019,07,27,04,23,17.80
2019,07,27,04,24,17.80
2019,07,27,04,25,17.70
2019,07,27,04,26,17.70
2019,07,27,04,27,17.70
2019,07,27,04,28,17.70
2019,07,27,04,29,17.60
2019,07,27,04,30,17.60
2019,07,27,04,31,17.60
2019,07,27,04,32,17.50
2019,07,27,04,33,17.50
2019,07,27,04,34,17.50
2019,07,27,04,35,17.40
2019,07,27,04,36,17.40
2019,07,27,04,37,17.40
2019,07,27,04,38,17.30
2019,07,27,04,39,17.30
2019,07,27,04,40,17.30
2019,07,27,04,41,17.30
2019,07,27,04,42,17.30
2019,07,27,04,43,17.30
2019,07,27,04,44,17.30
2019,07,27,04,45,17.20
2019,07,27,04,46,17.20
2019,07,27,04,47,17.20
2019,07,27,04,48,17.20
2019,07,27,04,49,17.10
2019,07,27,04,50,17.10
2019,07,27,04,51,17.10
2019,07,27,04,52,17.10
2019,07,27,04,53,17.10
2019,07,27,04,54,17.00
2019,07,27,04,55,17.00
2019,07,27,04,56,17.00
2019,07,27,04,57,17.00
2019,07,27,04,58,17.00
2019,07,27,04,59,17.00
2019,07,27,05,00,17.00
2019,07,27,05,01,17.00
2019,07,27,05,02,17.00
2019,07,27,05,03,17.00
2019,07,27,05,04,17.00
2019,07,27,05,05,17.00
2019,07,27,05,06,17.00
2019,07,27,05,07,17.00
2019,07,27,05,08,17.00
2019,07,27,05,09,17.00
2019,07,27,05,10,17.00
2019,07,27,05,11,17.00
2019,07,27,05,12,17.00
2019,07,27,05,13,17.00
2019,07,27,05,14,17.00
2019,07,27,05,15,17.00
2019,07,27,05,16,17.00
2019,07,27,05,17,17.00
2019,07,27,05,18,17.00
2019,07,27,05,19,17.00
2019,07,27,05,20,17.00
2019,07,27,05,21,17.00
2019,07,27,05,22,17.00
2019,07,27,05,23,17.00
2019,07,27,05,24,17.00
2019,07,27,05,25,17.00
2019,07,27,05,26,17.00
2019,07,27,05,27,17.00
2019,07,27,05,28,17.00
2019,07,27,05,29,16.90
2019,07,27,05,30,16.90
2019,07,27,05,31,16.90
2019,07,27,05,32,16.90
2019,07,27,05,33,16.90
2019,07,27,05,34,16.90
2019,07,27,05,35,16.90
2019,07,27,05,36,16.90
2019,07,27,05,37,16.80
2019,07,27,05,38,16.80
2019,07,27,05,39,16.80
2019,07,27,05,40,16.80
2019,07,27,05,41,16.80
2019,07,27,05,42,16.80
2019,07,27,05,43,16.70
2019,07,27,05,44,16.70
2019,07,27,05,45,16.70
2019,07,27,05,46,16.70
2019,07,27,05,47,16.70
2019,07,27,05,48,16.70
2019,07,27,05,49,16.70
2019,07,27,05,50,16.70
2019,07,27,05,51,16.60
2019,07,27,05,52,16.60
2019,07,27,05,53,16.60
2019,07,27,05,54,16.60
2019,07,27,05,55,16.60
2019,07,27,05,56,16.40
2019,07,27,05,57,16.40
2019,07,27,05,58,16.40
2019,07,27,05,59,16.40
2019,07,27,06,00,16.40
2019,07,27,06,01,16.40
2019,07,27,06,02,16.40
2019,07,27,06,03,16.40
2019,07,27,06,04,16.40
2019,07,27,06,05,16.40
2019,07,27,06,06,16.40
2019,07,27,06,07,16.40
2019,07,27,06,08,16.40
2019,07,27,06,09,16.30
2019,07,27,06,10,16.30
2019,07,27,06,11,16.30
2019,07,27,06,12,16.40
2019,07,27,06,13,16.40
2019,07,27,06,14,16.40
2019,07,27,06,15,16.40
2019,07,27,06,16,16.40
2019,07,27,06,17,16.40
2019,07,27,06,18,16.40
2019,07,27,06,19,16.40
2019,07,27,06,20,16.40
2019,07,27,06,21,16.40
2019,07,27,06,22,16.40
2019,07,27,06,23,16.60
2019,07,27,06,24,16.60
2019,07,27,06,25,16.60
2019,07,27,06,26,16.60
2019,07,27,06,27,16.60
2019,07,27,06,28,16.60
2019,07,27,06,29,16.60
2019,07,27,06,30,16.60
2019,07,27,06,31,16.70
2019,07,27,06,32,16.70
2019,07,27,06,33,16.70
2019,07,27,06,34,16.70
2019,07,27,06,35,16.70
2019,07,27,06,36,16.70
2019,07,27,06,37,16.70
2019,07,27,06,38,16.70
2019,07,27,06,39,16.70
2019,07,27,06,40,16.70
2019,07,27,06,41,16.70
2019,07,27,06,42,16.70
2019,07,27,06,43,16.70
2019,07,27,06,44,16.70
2019,07,27,06,45,16.70
2019,07,27,06,46,16.70
2019,07,27,06,47,16.80
2019,07,27,06,48,16.80
2019,07,27,06,49,16.80
2019,07,27,06,50,16.80
2019,07,27,06,51,16.80
2019,07,27,06,52,16.90
2019,07,27,06,53,16.90
2019,07,27,06,54,16.90
2019,07,27,06,55,16.90
2019,07,27,06,56,16.90
2019,07,27,06,57,16.90
2019,07,27,06,58,17.00
2019,07,27,06,59,17.00
2019,07,27,07,00,17.00
2019,07,27,07,01,17.00
2019,07,27,07,02,17.00
2019,07,27,07,03,17.00
2019,07,27,07,04,17.00
2019,07,27,07,05,17.00
2019,07,27,07,06,17.10
2019,07,27,07,07,17.10
2019,07,27,07,08,17.10
2019,07,27,07,09,17.10
2019,07,27,07,10,17.20
2019,07,27,07,11,17.20
2019,07,27,07,12,17.30
2019,07,27,07,13,17.30
2019,07,27,07,14,17.40
2019,07,27,07,15,17.40
2019,07,27,07,16,17.50
2019,07,27,07,17,17.60
2019,07,27,07,18,17.60
2019,07,27,07,19,17.70
2019,07,27,07,20,17.70
2019,07,27,07,21,17.70
2019,07,27,07,22,17.80
2019,07,27,07,23,17.80
2019,07,27,07,24,17.80
2019,07,27,07,25,17.80
2019,07,27,07,26,17.80
2019,07,27,07,27,17.80
2019,07,27,07,28,17.80
2019,07,27,07,29,17.80
2019,07,27,07,30,17.80
2019,07,27,07,31,17.80
2019,07,27,07,32,17.80
2019,07,27,07,33,17.80
2019,07,27,07,34,17.80
2019,07,27,07,35,17.80
2019,07,27,07,36,17.80
2019,07,27,07,37,17.90
2019,07,27,07,38,17.90
2019,07,27,07,39,17.90
2019,07,27,07,40,17.90
2019,07,27,07,41,17.90
2019,07,27,07,42,17.90
2019,07,27,07,43,17.90
2019,07,27,07,44,17.90
2019,07,27,07,45,17.90
2019,07,27,07,46,18.00
2019,07,27,07,47,18.10
2019,07,27,07,48,18.10
2019,07,27,07,49,18.10
2019,07,27,07,50,18.20
2019,07,27,07,51,18.20
2019,07,27,07,52,18.30
2019,07,27,07,53,18.30
2019,07,27,07,54,18.30
2019,07,27,07,55,18.30
2019,07,27,07,56,18.40
2019,07,27,07,57,18.40
2019,07,27,07,58,18.50
2019,07,27,07,59,18.50
2019,07,27,08,00,18.50
2019,07,27,08,01,18.60
2019,07,27,08,02,18.60
2019,07,27,08,03,18.70
2019,07,27,08,04,18.70
2019,07,27,08,05,18.80
2019,07,27,08,06,18.80
2019,07,27,08,07,18.90
2019,07,27,08,08,18.90
2019,07,27,08,09,18.90
2019,07,27,08,10,19.00
2019,07,27,08,11,19.10
2019,07,27,08,12,19.10
2019,07,27,08,13,19.10
2019,07,27,08,14,19.20
2019,07,27,08,15,19.30
2019,07,27,08,16,19.30
2019,07,27,08,17,19.40
2019,07,27,08,18,19.40
2019,07,27,08,19,19.40
2019,07,27,08,20,19.50
2019,07,27,08,21,19.50
2019,07,27,08,22,19.60
2019,07,27,08,23,19.60
2019,07,27,08,24,19.60
2019,07,27,08,25,19.70
2019,07,27,08,26,19.70
2019,07,27,08,27,19.70
2019,07,27,08,28,19.70
2019,07,27,08,29,19.80
2019,07,27,08,30,19.80
2019,07,27,08,31,19.90
2019,07,27,08,32,19.90
2019,07,27,08,33,19.90
2019,07,27,08,34,19.90
2019,07,27,08,35,19.90
2019,07,27,08,36,20.00
2019,07,27,08,37,20.10
2019,07,27,08,38,20.20
2019,07,27,08,39,20.20
2019,07,27,08,40,20.20
2019,07,27,08,41,20.20
2019,07,27,08,42,20.40
2019,07,27,08,43,20.50
2019,07,27,08,44,20.50
2019,07,27,08,45,20.50
2019,07,27,08,46,20.50
2019,07,27,08,47,20.40
2019,07,27,08,48,20.40
2019,07,27,08,49,20.40
2019,07,27,08,50,20.40
2019,07,27,08,51,20.50
2019,07,27,08,52,20.50
2019,07,27,08,53,20.50
2019,07,27,08,54,20.50
2019,07,27,08,55,20.50
2019,07,27,08,56,20.50
2019,07,27,08,57,20.50
2019,07,27,08,58,20.40
2019,07,27,08,59,20.40
2019,07,27,09,00,20.50
2019,07,27,09,01,20.50
2019,07,27,09,02,20.60
2019,07,27,09,03,20.60
2019,07,27,09,04,20.70
2019,07,27,09,05,20.70
2019,07,27,09,06,20.80
2019,07,27,09,07,20.80
2019,07,27,09,08,20.90
2019,07,27,09,09,21.00
2019,07,27,09,10,21.00
2019,07,27,09,11,20.90
2019,07,27,09,12,20.90
2019,07,27,09,13,20.90
2019,07,27,09,14,20.90
2019,07,27,09,15,20.90
2019,07,27,09,16,20.90
2019,07,27,09,17,21.00
2019,07,27,09,18,21.00
2019,07,27,09,19,21.00
2019,07,27,09,20,21.00
2019,07,27,09,21,21.00
2019,07,27,09,22,21.00
2019,07,27,09,23,21.10
2019,07,27,09,24,21.20
2019,07,27,09,25,21.20
2019,07,27,09,26,21.20
2019,07,27,09,27,21.20
2019,07,27,09,28,21.20
2019,07,27,09,29,21.30
2019,07,27,09,30,21.30
2019,07,27,09,31,21.30
2019,07,27,09,32,21.40
2019,07,27,09,33,21.50
2019,07,27,09,34,21.60
2019,07,27,09,35,21.60
2019,07,27,09,36,21.60
2019,07,27,09,37,21.60
2019,07,27,09,38,21.60
2019,07,27,09,39,21.60
2019,07,27,09,40,21.60
2019,07,27,09,41,21.60
2019,07,27,09,42,21.50
2019,07,27,09,43,21.50
2019,07,27,09,44,21.60
2019,07,27,09,45,21.60
2019,07,27,09,46,21.60
2019,07,27,09,47,21.60
2019,07,27,09,48,21.60
2019,07,27,09,49,21.50
2019,07,27,09,50,21.40
2019,07,27,09,51,21.40
2019,07,27,09,52,21.40
2019,07,27,09,53,21.40
2019,07,27,09,54,21.50
2019,07,27,09,55,21.60
2019,07,27,09,56,21.60
2019,07,27,09,57,21.60
2019,07,27,09,58,21.60
2019,07,27,09,59,21.60
2019,07,27,10,00,21.60
2019,07,27,10,01,21.60
2019,07,27,10,02,21.60
2019,07,27,10,03,21.60
2019,07,27,10,04,21.60
2019,07,27,10,05,21.60
2019,07,27,10,06,21.60
2019,07,27,10,07,21.60
2019,07,27,10,08,21.60
2019,07,27,10,09,21.60
2019,07,27,10,10,21.60
2019,07,27,10,11,21.60
2019,07,27,10,12,21.60
2019,07,27,10,13,21.70
2019,07,27,10,14,21.60
2019,07,27,10,15,21.60
2019,07,27,10,16,21.60
2019,07,27,10,17,21.60
2019,07,27,10,18,21.60
2019,07,27,10,19,21.70
2019,07,27,10,20,21.70
2019,07,27,10,21,21.70
2019,07,27,10,22,21.80
2019,07,27,10,23,21.80
2019,07,27,10,24,21.80
2019,07,27,10,25,21.90
2019,07,27,10,26,21.90
2019,07,27,10,27,22.00
2019,07,27,10,28,22.00
2019,07,27,10,29,22.00
2019,07,27,10,30,22.10
2019,07,27,10,31,22.10
2019,07,27,10,32,22.10
2019,07,27,10,33,22.10
2019,07,27,10,34,22.00
2019,07,27,10,35,22.00
2019,07,27,10,36,22.10
2019,07,27,10,37,22.20
2019,07,27,10,38,22.30
2019,07,27,10,39,22.20
2019,07,27,10,40,22.10
2019,07,27,10,41,22.10
2019,07,27,10,42,22.10
2019,07,27,10,43,22.10
2019,07,27,10,44,22.10
2019,07,27,10,45,22.10
2019,07,27,10,46,22.10
2019,07,27,10,47,22.10
2019,07,27,10,48,22.10
2019,07,27,10,49,22.10
2019,07,27,10,50,22.10
2019,07,27,10,51,22.20
2019,07,27,10,52,22.30
2019,07,27,10,53,22.30
2019,07,27,10,54,22.50
2019,07,27,10,55,22.60
2019,07,27,10,56,22.60
2019,07,27,10,57,22.60
2019,07,27,10,58,22.60
2019,07,27,10,59,22.70
2019,07,27,11,00,22.80
2019,07,27,11,01,22.90
2019,07,27,11,02,22.90
2019,07,27,11,03,22.90
2019,07,27,11,04,22.90
2019,07,27,11,05,22.90
2019,07,27,11,06,22.90
2019,07,27,11,07,22.80
2019,07,27,11,08,22.90
2019,07,27,11,09,22.90
2019,07,27,11,10,22.90
2019,07,27,11,11,22.90
2019,07,27,11,12,22.90
2019,07,27,11,13,22.90
2019,07,27,11,14,22.90
2019,07,27,11,15,22.90
2019,07,27,11,16,23.00
2019,07,27,11,17,23.20
2019,07,27,11,18,23.20
2019,07,27,11,19,23.20
2019,07,27,11,20,23.30
2019,07,27,11,21,23.30
2019,07,27,11,22,23.30
2019,07,27,11,23,23.30
2019,07,27,11,24,23.40
2019,07,27,11,25,23.40
2019,07,27,11,26,23.30
2019,07,27,11,27,23.20
2019,07,27,11,28,23.20
2019,07,27,11,29,23.10
2019,07,27,11,30,23.10
2019,07,27,11,31,23.10
2019,07,27,11,32,23.00
2019,07,27,11,33,22.90
2019,07,27,11,34,22.90
2019,07,27,11,35,22.80
2019,07,27,11,36,22.80
2019,07,27,11,37,22.70
2019,07,27,11,38,22.60
2019,07,27,11,39,22.60
2019,07,27,11,40,22.60
2019,07,27,11,41,22.60
2019,07,27,11,42,22.70
2019,07,27,11,43,22.70
2019,07,27,11,44,22.60
2019,07,27,11,45,22.60
2019,07,27,11,46,22.60
2019,07,27,11,47,22.60
2019,07,27,11,48,22.60
2019,07,27,11,49,22.60
2019,07,27,11,50,22.70
2019,07,27,11,51,22.80
2019,07,27,11,52,22.90
2019,07,27,11,53,23.00
2019,07,27,11,54,23.00
2019,07,27,11,55,22.90
2019,07,27,11,56,22.90
2019,07,27,11,57,22.90
2019,07,27,11,58,22.90
2019,07,27,11,59,23.00
2019,07,27,12,00,23.10
2019,07,27,12,01,23.00
2019,07,27,12,02,22.90
2019,07,27,12,03,22.90
2019,07,27,12,04,22.90
2019,07,27,12,05,22.90
2019,07,27,12,06,23.10
2019,07,27,12,07,23.10
2019,07,27,12,08,23.10
2019,07,27,12,09,23.10
2019,07,27,12,10,23.00
2019,07,27,12,11,22.90
2019,07,27,12,12,22.90
2019,07,27,12,13,22.90
2019,07,27,12,14,22.90
2019,07,27,12,15,22.90
2019,07,27,12,16,22.90
2019,07,27,12,17,23.00
2019,07,27,12,18,23.20
2019,07,27,12,19,23.30
2019,07,27,12,20,23.30
2019,07,27,12,21,23.30
2019,07,27,12,22,23.30
2019,07,27,12,23,23.30
2019,07,27,12,24,23.30
2019,07,27,12,25,23.30
2019,07,27,12,26,23.30
2019,07,27,12,27,23.30
2019,07,27,12,28,23.40
2019,07,27,12,29,23.50
2019,07,27,12,30,23.60
2019,07,27,12,31,23.70
2019,07,27,12,32,23.70
2019,07,27,12,33,23.60
2019,07,27,12,34,23.40
2019,07,27,12,35,23.30
2019,07,27,12,36,23.40
2019,07,27,12,37,23.40
2019,07,27,12,38,23.40
2019,07,27,12,39,23.40
2019,07,27,12,40,23.40
2019,07,27,12,41,23.30
2019,07,27,12,42,23.30
2019,07,27,12,43,23.30
2019,07,27,12,44,23.20
2019,07,27,12,45,23.10
2019,07,27,12,46,23.10
2019,07,27,12,47,23.00
2019,07,27,12,48,22.90
2019,07,27,12,49,22.90
2019,07,27,12,50,22.90
2019,07,27,12,51,22.90
2019,07,27,12,52,22.90
2019,07,27,12,53,22.90
2019,07,27,12,54,22.90
2019,07,27,12,55,22.90
2019,07,27,12,56,22.90
2019,07,27,12,57,22.90
2019,07,27,12,58,23.00
2019,07,27,12,59,23.10
2019,07,27,13,00,23.20
2019,07,27,13,01,23.20
2019,07,27,13,02,23.20
2019,07,27,13,03,23.20
2019,07,27,13,04,23.20
2019,07,27,13,05,23.20
2019,07,27,13,06,23.30
2019,07,27,13,07,23.30
2019,07,27,13,08,23.30
2019,07,27,13,09,23.30
2019,07,27,13,10,23.30
2019,07,27,13,11,23.30
2019,07,27,13,12,23.30
2019,07,27,13,13,23.30
2019,07,27,13,14,23.30
2019,07,27,13,15,23.30
2019,07,27,13,16,23.30
2019,07,27,13,17,23.30
2019,07,27,13,18,23.20
2019,07,27,13,19,23.10
2019,07,27,13,20,23.00
2019,07,27,13,21,22.90
2019,07,27,13,22,22.80
2019,07,27,13,23,22.80
2019,07,27,13,24,22.70
2019,07,27,13,25,22.70
2019,07,27,13,26,22.70
2019,07,27,13,27,22.70
2019,07,27,13,28,22.80
2019,07,27,13,29,22.90
2019,07,27,13,30,22.90
2019,07,27,13,31,22.90
2019,07,27,13,32,22.90
2019,07,27,13,33,22.90
2019,07,27,13,34,23.00
2019,07,27,13,35,23.10
2019,07,27,13,36,23.00
2019,07,27,13,37,22.90
2019,07,27,13,38,22.90
2019,07,27,13,39,22.90
2019,07,27,13,40,22.90
2019,07,27,13,41,22.90
2019,07,27,13,42,22.90
2019,07,27,13,43,22.90
2019,07,27,13,44,22.90
2019,07,27,13,45,22.90
2019,07,27,13,46,22.90
2019,07,27,13,47,22.90
2019,07,27,13,48,23.10
2019,07,27,13,49,23.10
2019,07,27,13,50,23.20
2019,07,27,13,51,23.30
2019,07,27,13,52,23.30
2019,07,27,13,53,23.30
2019,07,27,13,54,23.30
2019,07,27,13,55,23.30
2019,07,27,13,56,23.30
2019,07,27,13,57,23.30
2019,07,27,13,58,23.30
2019,07,27,13,59,23.30
2019,07,27,14,00,23.30
2019,07,27,14,01,23.30
2019,07,27,14,02,23.30
2019,07,27,14,03,23.30
2019,07,27,14,04,23.30
2019,07,27,14,05,23.30
2019,07,27,14,06,23.30
2019,07,27,14,07,23.30
2019,07,27,14,08,23.30
2019,07,27,14,09,23.30
2019,07,27,14,10,23.40
2019,07,27,14,11,23.50
2019,07,27,14,12,23.60
2019,07,27,14,13,23.60
2019,07,27,14,14,23.70
2019,07,27,14,15,23.70
2019,07,27,14,16,23.70
2019,07,27,14,17,23.70
2019,07,27,14,18,23.60
2019,07,27,14,19,23.50
2019,07,27,14,20,23.40
2019,07,27,14,21,23.30
2019,07,27,14,22,23.30
2019,07,27,14,23,23.30
2019,07,27,14,24,23.30
2019,07,27,14,25,23.30
2019,07,27,14,26,23.30
2019,07,27,14,27,23.30
2019,07,27,14,28,23.20
2019,07,27,14,29,23.20
2019,07,27,14,30,23.20
2019,07,27,14,31,23.20
2019,07,27,14,32,23.20
2019,07,27,14,33,23.10
2019,07,27,14,34,23.10
2019,07,27,14,35,23.00
2019,07,27,14,36,22.90
2019,07,27,14,37,22.90
2019,07,27,14,38,22.90
2019,07,27,14,39,22.90
2019,07,27,14,40,22.90
2019,07,27,14,41,22.80
2019,07,27,14,42,22.80
2019,07,27,14,43,22.80
2019,07,27,14,44,22.80
2019,07,27,14,45,22.80
2019,07,27,14,46,22.80
2019,07,27,14,47,22.80
2019,07,27,14,48,22.80
2019,07,27,14,49,22.90
2019,07,27,14,50,22.90
2019,07,27,14,51,22.90
2019,07,27,14,52,22.90
2019,07,27,14,53,22.90
2019,07,27,14,54,22.90
2019,07,27,14,55,22.90
2019,07,27,14,56,22.90
2019,07,27,14,57,23.10
2019,07,27,14,58,23.10
2019,07,27,14,59,23.10
2019,07,27,15,00,23.10
2019,07,27,15,01,23.20
2019,07,27,15,02,23.20
2019,07,27,15,03,23.20
2019,07,27,15,04,23.20
2019,07,27,15,05,23.20
2019,07,27,15,06,23.20
2019,07,27,15,07,23.20
2019,07,27,15,08,23.20
2019,07,27,15,09,23.20
2019,07,27,15,10,23.20
2019,07,27,15,11,23.20
2019,07,27,15,12,23.20
2019,07,27,15,13,23.20
2019,07,27,15,14,23.20
2019,07,27,15,15,23.20
2019,07,27,15,16,23.20
2019,07,27,15,17,23.20
2019,07,27,15,18,23.20
2019,07,27,15,19,23.20
2019,07,27,15,20,23.20
2019,07,27,15,21,23.20
2019,07,27,15,22,23.20
2019,07,27,15,23,23.20
2019,07,27,15,24,23.20
2019,07,27,15,25,23.30
2019,07,27,15,26,23.30
2019,07,27,15,27,23.30
2019,07,27,15,28,23.30
2019,07,27,15,29,23.30
2019,07,27,15,30,23.30
2019,07,27,15,31,23.30
2019,07,27,15,32,23.30
2019,07,27,15,33,23.30
2019,07,27,15,34,23.30
2019,07,27,15,35,23.30
2019,07,27,15,36,23.30
2019,07,27,15,37,23.20
2019,07,27,15,38,23.20
2019,07,27,15,39,23.30
2019,07,27,15,40,23.30
2019,07,27,15,41,23.30
2019,07,27,15,42,23.30
2019,07,27,15,43,23.30
2019,07,27,15,44,23.30
2019,07,27,15,45,23.30
2019,07,27,15,46,23.30
2019,07,27,15,47,23.30
2019,07,27,15,48,23.20
2019,07,27,15,49,23.20
2019,07,27,15,50,23.20
2019,07,27,15,51,23.20
2019,07,27,15,52,23.20
2019,07,27,15,53,23.30
2019,07,27,15,54,23.30
2019,07,27,15,55,23.30
2019,07,27,15,56,23.30
2019,07,27,15,57,23.30
2019,07,27,15,58,23.30
2019,07,27,15,59,23.30
2019,07,27,16,00,23.30
2019,07,27,16,01,23.30
2019,07,27,16,02,23.40
2019,07,27,16,03,23.40
2019,07,27,16,04,23.50
2019,07,27,16,05,23.60
2019,07,27,16,06,23.70
2019,07,27,16,07,23.70
2019,07,27,16,08,23.70
2019,07,27,16,09,23.70
2019,07,27,16,10,23.70
2019,07,27,16,11,23.70
2019,07,27,16,12,23.60
2019,07,27,16,13,23.50
2019,07,27,16,14,23.40
2019,07,27,16,15,23.30
2019,07,27,16,16,23.30
2019,07,27,16,17,23.20
2019,07,27,16,18,23.20
2019,07,27,16,19,23.20
2019,07,27,16,20,23.10
2019,07,27,16,21,23.10
2019,07,27,16,22,23.10
2019,07,27,16,23,23.10
2019,07,27,16,24,23.10
2019,07,27,16,25,23.20
2019,07,27,16,26,23.30
2019,07,27,16,27,23.30
2019,07,27,16,28,23.40
2019,07,27,16,29,23.40
2019,07,27,16,30,23.60
2019,07,27,16,31,23.60
2019,07,27,16,32,23.60
2019,07,27,16,33,23.70
2019,07,27,16,34,23.70
2019,07,27,16,35,23.70
2019,07,27,16,36,23.80
2019,07,27,16,37,23.90
2019,07,27,16,38,24.00
2019,07,27,16,39,24.10
2019,07,27,16,40,24.10
2019,07,27,16,41,24.10
2019,07,27,16,42,24.10
2019,07,27,16,43,24.10
2019,07,27,16,44,24.10
2019,07,27,16,45,24.10
2019,07,27,16,46,24.10
2019,07,27,16,47,24.10
2019,07,27,16,48,24.10
2019,07,27,16,49,24.10
2019,07,27,16,50,24.10
2019,07,27,16,51,24.10
2019,07,27,16,52,24.10
2019,07,27,16,53,24.10
2019,07,27,16,54,24.20
2019,07,27,16,55,24.20
2019,07,27,16,56,24.20
2019,07,27,16,57,24.20
2019,07,27,16,58,24.10
2019,07,27,16,59,24.10
2019,07,27,17,00,24.10
2019,07,27,17,01,24.20
2019,07,27,17,02,24.20
2019,07,27,17,03,24.20
2019,07,27,17,04,24.20
2019,07,27,17,05,24.20
2019,07,27,17,06,24.20
2019,07,27,17,07,24.10
2019,07,27,17,08,24.10
2019,07,27,17,09,24.10
2019,07,27,17,10,24.10
2019,07,27,17,11,24.10
2019,07,27,17,12,24.10
2019,07,27,17,13,24.10
2019,07,27,17,14,24.10
2019,07,27,17,15,24.10
2019,07,27,17,16,24.10
2019,07,27,17,17,24.10
2019,07,27,17,18,24.10
2019,07,27,17,19,24.10